Weather History for KXLL - October, 2012

Change the Weather History Date:

Monday, October 15, 2012

  Actual Average (KABE) Record (KABE)
Temperature  
Mean Temperature 60 °F 53 °F  
Max Temperature 68 °F 64 °F 82 °F (1947)
Min Temperature 53 °F 41 °F 29 °F (2006)
Degree Days  
Heating Degree Days 4 13  
Month to date heating degree days 155  
Since 1 July heating degree days 270  
Cooling Degree Days 0 0  
Month to date cooling degree days 3  
Year to date cooling degree days 753  
Growing Degree Days 10 (Base 50)    
Moisture  
Dew Point 54 °F    
Average Humidity 81    
Maximum Humidity 94    
Minimum Humidity 64    
Precipitation  
Precipitation 0.24 in 0.13 in 1.62 in (1970)
Month to date precipitation 2.07  
Year to date precipitation 36.46  
Snow  
Snow 0.00 in 0.00 in T in (2009)
Month to date snowfall 0.0  
Since 1 July snowfall 0.0  
Since 1 September snowfall 0.0  
Snow Depth -    
Sea Level Pressure  
Sea Level Pressure 29.76 in    
Wind  
Wind Speed 6 mph (SSW)    
Max Wind Speed 12 mph    
Max Gust Speed 18 mph    
Visibility 9 miles    
Events Rain , Thunderstorm    
T = Trace of Precipitation, MM = Missing Value Source: NWS Daily Summary

Daily Weather History Graph

Daily Weather History Graph

Search for Another Location

Airport or City:

Trip Planner

Search our weather history database for the weather conditions in past years. The results will help you decide how hot, cold, wet, or windy it might be!

Date:

Astronomy

Oct. 15, 2012 Rise Set
Actual Time 7:13 AM EDT 6:21 PM EDT
Civil Twilight 6:45 AM EDT 6:48 PM EDT
Nautical Twilight 6:14 AM EDT 7:20 PM EDT
Astronomical Twilight 5:42 AM EDT 7:51 PM EDT
Moon 7:21 AM EDT (10/15) 6:18 PM EDT (10/15)
Length of Visible Light 12h 02m
Length of Day
11h 07m
New Moon, 0% of the Moon is Illuminated
Oct 15
New Moon
Oct 21
First Quarter
Oct 29
Full
Nov 6
Last Quarter
Nov 13
New

Hourly Weather History & Observations

Time (EDT) Temp. Dew Point Humidity Pressure Visibility Wind Dir Wind Speed Gust Speed Precip Events Conditions
12:15 AM 59.0 °F 51.8 °F 77% 29.93 in 10.0 mi SW 3.5 mph - N/A   Clear
12:35 AM 57.2 °F 51.8 °F 82% 29.92 in 10.0 mi SSW 5.8 mph - N/A   Clear
12:55 AM 57.2 °F 51.8 °F 82% 29.92 in 10.0 mi SSW 5.8 mph - N/A   Clear
1:15 AM 59.0 °F 51.8 °F 77% 29.91 in 10.0 mi South 5.8 mph - N/A   Clear
1:35 AM 59.0 °F 51.8 °F 77% 29.90 in 10.0 mi South 8.1 mph - N/A   Clear
1:55 AM 60.8 °F 51.8 °F 72% 29.88 in 10.0 mi South 6.9 mph - N/A   Clear
2:15 AM 60.8 °F 51.8 °F 72% 29.87 in 10.0 mi South 8.1 mph 16.1 mph N/A   Clear
2:35 AM 60.8 °F 53.6 °F 77% 29.86 in 10.0 mi SSW 9.2 mph - N/A   Clear
2:55 AM 60.8 °F 53.6 °F 77% 29.85 in 10.0 mi SSW 5.8 mph - N/A   Clear
3:15 AM 60.8 °F 53.6 °F 77% 29.84 in 10.0 mi SSW 8.1 mph - N/A   Clear
3:35 AM 59.0 °F 53.6 °F 82% 29.84 in 10.0 mi SSW 5.8 mph - N/A   Scattered Clouds
3:55 AM 59.0 °F 53.6 °F 82% 29.83 in 10.0 mi SW 4.6 mph - N/A   Scattered Clouds
4:15 AM 60.8 °F 53.6 °F 77% 29.83 in 10.0 mi SW 4.6 mph - N/A   Overcast
4:35 AM 60.8 °F 53.6 °F 77% 29.82 in 10.0 mi South 5.8 mph - N/A   Overcast
4:55 AM 60.8 °F 53.6 °F 77% 29.81 in 10.0 mi SSW 3.5 mph - N/A   Overcast
5:15 AM 60.8 °F 53.6 °F 77% 29.80 in 10.0 mi SSW 6.9 mph - N/A   Mostly Cloudy
5:55 AM 60.8 °F 53.6 °F 77% 29.80 in 10.0 mi SSW 6.9 mph - N/A   Scattered Clouds
6:15 AM 60.8 °F 53.6 °F 77% 29.79 in 10.0 mi South 6.9 mph - N/A   Scattered Clouds
6:55 AM 60.8 °F 53.6 °F 77% 29.78 in 10.0 mi SW 5.8 mph - N/A   Scattered Clouds
7:15 AM 59.0 °F 53.6 °F 82% 29.77 in 10.0 mi SSW 6.9 mph - N/A   Scattered Clouds
7:35 AM 60.8 °F 53.6 °F 77% 29.77 in 10.0 mi South 6.9 mph - N/A   Scattered Clouds
7:55 AM 60.8 °F 53.6 °F 77% 29.77 in 10.0 mi SSW 6.9 mph - N/A   Clear
8:15 AM 60.8 °F 55.4 °F 82% 29.78 in 10.0 mi SW 5.8 mph - N/A   Clear
8:35 AM 60.8 °F 55.4 °F 82% 29.77 in 10.0 mi SW 3.5 mph - N/A   Clear
8:55 AM 62.6 °F 55.4 °F 77% 29.77 in 10.0 mi South 5.8 mph - N/A   Clear
9:15 AM 64.4 °F 55.4 °F 73% 29.77 in 10.0 mi SSW 8.1 mph - N/A   Clear
9:35 AM 64.4 °F 55.4 °F 73% 29.77 in 10.0 mi SSW 8.1 mph - N/A   Clear
9:55 AM 64.4 °F 55.4 °F 73% 29.77 in 10.0 mi South 6.9 mph - N/A   Scattered Clouds
10:15 AM 64.4 °F 55.4 °F 73% 29.77 in 10.0 mi SSW 8.1 mph - N/A   Mostly Cloudy
10:35 AM 66.2 °F 55.4 °F 68% 29.76 in 10.0 mi South 5.8 mph - N/A   Mostly Cloudy
10:55 AM 68.0 °F 55.4 °F 64% 29.76 in 10.0 mi South 8.1 mph - N/A   Mostly Cloudy
11:15 AM 68.0 °F 57.2 °F 68% 29.76 in 10.0 mi SW 8.1 mph - N/A   Overcast
11:35 AM 68.0 °F 57.2 °F 68% 29.76 in 10.0 mi SSW 6.9 mph 18.4 mph N/A   Overcast
11:55 AM 64.4 °F 59.0 °F 83% 29.76 in 7.0 mi SW 11.5 mph - N/A Rain Light Rain
12:15 PM 64.4 °F 59.0 °F 83% 29.76 in 10.0 mi SSW 8.1 mph - 0.01 in Rain Light Rain
12:35 PM 64.4 °F 59.0 °F 83% 29.75 in 7.0 mi SSW 4.6 mph - 0.01 in Rain Rain
12:55 PM 62.6 °F 59.0 °F 88% 29.74 in 10.0 mi SSW 5.8 mph - 0.01 in Rain Light Rain
1:15 PM 62.6 °F 59.0 °F 88% 29.72 in 10.0 mi SSW 5.8 mph - N/A Rain Light Rain
1:35 PM 64.4 °F 60.8 °F 88% 29.71 in 10.0 mi South 5.8 mph - N/A   Scattered Clouds
1:55 PM 64.4 °F 59.0 °F 83% 29.70 in 10.0 mi South 4.6 mph - N/A   Mostly Cloudy
2:15 PM 64.4 °F 59.0 °F 83% 29.69 in 10.0 mi South 6.9 mph - N/A   Overcast
2:35 PM 64.4 °F 59.0 °F 83% 29.70 in 7.0 mi South 8.1 mph - N/A Rain Light Rain
2:55 PM 62.6 °F 60.8 °F 94% 29.70 in 5.0 mi SSW 6.9 mph - 0.02 in Rain Rain
3:15 PM 62.6 °F 60.8 °F 94% 29.69 in 5.0 mi South 5.8 mph - 0.01 in Rain Rain
3:35 PM 62.6 °F 60.8 °F 94% 29.68 in 7.0 mi SSW 4.6 mph - 0.03 in Rain Light Rain
3:55 PM 62.6 °F 59.0 °F 88% 29.69 in 7.0 mi SW 6.9 mph - 0.05 in Rain Rain
4:15 PM 60.8 °F 57.2 °F 88% 29.68 in 4.0 mi WSW 4.6 mph - 0.04 in Rain , Thunderstorm Heavy Thunderstorms and Rain
4:35 PM 60.8 °F 57.2 °F 88% 29.70 in 4.0 mi WSW 5.8 mph - 0.12 in Rain Heavy Rain
4:55 PM 60.8 °F 57.2 °F 88% 29.69 in 5.0 mi WSW 3.5 mph - 0.15 in Rain Light Rain
5:15 PM 60.8 °F 57.2 °F 88% 29.69 in 7.0 mi SW 3.5 mph - 0.01 in Rain Light Rain
5:35 PM 59.0 °F 55.4 °F 88% 29.69 in 10.0 mi SSW 3.5 mph - 0.01 in Rain Light Rain
5:55 PM 59.0 °F 55.4 °F 88% 29.68 in 7.0 mi Calm Calm - 0.01 in Rain Light Rain
6:15 PM 59.0 °F 55.4 °F 88% 29.69 in 5.0 mi SW 3.5 mph - N/A   Scattered Clouds
6:35 PM 59.0 °F 55.4 °F 88% 29.69 in 5.0 mi SW 4.6 mph - N/A   Clear
6:55 PM 59.0 °F 55.4 °F 88% 29.70 in 7.0 mi SSW 4.6 mph - N/A   Mostly Cloudy
7:15 PM 59.0 °F 55.4 °F 88% 29.70 in 7.0 mi SSW 3.5 mph - N/A   Overcast
7:35 PM 59.0 °F 55.4 °F 88% 29.69 in 5.0 mi Calm Calm - N/A   Overcast
7:55 PM 55.4 °F 53.6 °F 94% 29.69 in 5.0 mi SSW 3.5 mph - N/A   Scattered Clouds
8:15 PM 55.4 °F 53.6 °F 94% 29.70 in 5.0 mi SSW 4.6 mph - N/A   Mostly Cloudy
8:35 PM 55.4 °F 53.6 °F 94% 29.71 in 4.0 mi SW 3.5 mph - N/A   Overcast
8:55 PM 55.4 °F 53.6 °F 94% 29.71 in 5.0 mi Calm Calm - N/A   Overcast
9:15 PM 55.4 °F 53.6 °F 94% 29.71 in 5.0 mi SW 4.6 mph - N/A   Mostly Cloudy
9:35 PM 55.4 °F 51.8 °F 88% 29.72 in 10.0 mi WSW 3.5 mph - N/A   Mostly Cloudy
9:55 PM 55.4 °F 50.0 °F 82% 29.72 in 10.0 mi WSW 4.6 mph - N/A   Scattered Clouds
10:15 PM 55.4 °F 48.2 °F 77% 29.73 in 10.0 mi WSW 3.5 mph - N/A   Mostly Cloudy
10:35 PM 55.4 °F 46.4 °F 72% 29.73 in 10.0 mi West 3.5 mph - N/A   Scattered Clouds
10:55 PM 55.4 °F 46.4 °F 72% 29.73 in 10.0 mi Calm Calm - N/A   Scattered Clouds
11:15 PM 53.6 °F 46.4 °F 77% 29.75 in 10.0 mi West 3.5 mph - N/A   Scattered Clouds
11:35 PM 53.6 °F 44.6 °F 72% 29.74 in 10.0 mi Calm Calm - N/A   Clear
11:55 PM 53.6 °F 42.8 °F 67% 29.73 in 10.0 mi WNW 3.5 mph - N/A   Clear